Wolf Point, MT

1:44 PM MDT on September 27, 2016 (GMT -0600)
Clayton

Weather History for KOLF - March, 2014

Change the Weather History Date:

Tuesday, March 4, 2014

  Actual Average Record
Temperature  
Mean Temperature 13 °F -  
Max Temperature 21 °F 37 °F 55 °F (2005)
Min Temperature 5 °F 13 °F -20 °F (2003)
Degree Days  
Heating Degree Days 52    
Cooling Degree Days 0    
Moisture  
Dew Point 5 °F    
Average Humidity 74    
Maximum Humidity 81    
Minimum Humidity 63    
Precipitation  
Precipitation 0.04 in 0.01 in 0.04 in (2014)
Month to date precipitation 0.05 0.04  
Year to date precipitation 0.19 0.56  
Sea Level Pressure  
Sea Level Pressure 30.05 in    
Wind  
Wind Speed 11 mph (ENE)    
Max Wind Speed 15 mph    
Max Gust Speed -    
Visibility 6 miles    
Events Snow    
T = Trace of Precipitation, MM = Missing Value Source: NWS Daily Summary

Daily Weather History Graph

Daily Weather History Graph

Search for Another Location

Airport or City:

Trip Planner

Search our weather history database for the weather conditions in past years. The results will help you decide how hot, cold, wet, or windy it might be!

Date:

Astronomy

Mar. 04, 2014 Rise Set
Actual Time 6:37 AM MST 5:51 PM MST
Civil Twilight 6:06 AM MST 6:22 PM MST
Nautical Twilight 5:30 AM MST 6:58 PM MST
Astronomical Twilight 4:54 AM MST 7:34 PM MST
Moon 8:06 AM MST (3/4) 10:23 PM MST (3/4)
Length of Visible Light 12h 16m
Length of Day
11h 14m
Waxing Crescent, 15% of the Moon is Illuminated
Mar 4
Waxing Crescent
Mar 8
First Quarter
Mar 16
Full
Mar 23
Last Quarter
Mar 30
New

Hourly Weather History & Observations

Time (MST) Temp. Windchill Dew Point Humidity Pressure Visibility Wind Dir Wind Speed Gust Speed Precip Events Conditions
12:53 AM 10.0 °F -4.5 °F 3.0 °F 73% 30.10 in 10.0 mi ENE 11.5 mph - 0.00 in Snow Light Snow
1:53 AM 10.0 °F -3.7 °F 3.0 °F 73% 30.09 in 10.0 mi East 10.4 mph - 0.00 in   Overcast
2:20 AM 10.0 °F -5.2 °F 1.9 °F 70% 29.96 in 3.0 mi East 12.7 mph - 0.00 in Snow Light Snow
2:24 AM 10.0 °F -5.2 °F 3.0 °F 73% 29.95 in 1.8 mi East 12.7 mph - 0.00 in Snow Light Snow
2:45 AM 10.0 °F -5.2 °F 3.0 °F 73% 29.95 in 2.5 mi ENE 12.7 mph - 0.01 in Snow Light Snow
2:53 AM 10.0 °F -4.5 °F 3.0 °F 73% 30.08 in 3.0 mi East 11.5 mph - 0.01 in Snow Light Snow
3:16 AM 10.0 °F -3.7 °F 3.9 °F 76% 29.95 in 2.5 mi East 10.4 mph - 0.00 in Snow Light Snow
3:24 AM 10.0 °F -4.5 °F 3.9 °F 76% 29.95 in 1.2 mi East 11.5 mph - 0.00 in Snow Light Snow
3:40 AM 10.0 °F -3.7 °F 3.9 °F 76% 29.95 in 2.0 mi East 10.4 mph - 0.00 in Snow Light Snow
3:46 AM 10.0 °F -4.5 °F 3.9 °F 76% 29.95 in 1.8 mi ENE 11.5 mph - 0.00 in Snow Light Snow
3:53 AM 10.0 °F -4.5 °F 3.9 °F 76% 30.07 in 2.0 mi East 11.5 mph - 0.00 in Snow Light Snow
4:16 AM 10.0 °F -3.7 °F 3.9 °F 76% 29.95 in 3.0 mi East 10.4 mph - 0.00 in Snow Light Snow
4:34 AM 10.0 °F -3.7 °F 3.9 °F 76% 29.96 in 2.0 mi East 10.4 mph - 0.00 in Snow Light Snow
4:37 AM 10.0 °F -3.7 °F 3.9 °F 76% 29.96 in 1.0 mi East 10.4 mph - 0.02 in Snow Light Snow
4:44 AM 10.0 °F -3.7 °F 3.9 °F 76% 29.96 in 0.5 mi East 10.4 mph - 0.02 in Snow Snow
4:49 AM 10.4 °F -5.4 °F 3.2 °F 73% 29.96 in 1.0 mi East 13.8 mph - 0.02 in Snow Light Snow
4:53 AM 10.0 °F -4.5 °F 3.9 °F 76% 30.09 in 1.5 mi East 11.5 mph - 0.02 in Snow Light Snow
5:01 AM 10.0 °F -5.2 °F 3.9 °F 76% 29.96 in 2.0 mi East 12.7 mph - 0.01 in Snow Light Snow
5:09 AM 10.0 °F -3.7 °F 5.0 °F 80% 29.97 in 1.5 mi ENE 10.4 mph - 0.01 in Snow Light Snow
5:17 AM 10.0 °F -3.7 °F 3.9 °F 76% 29.97 in 2.0 mi ENE 10.4 mph - 0.01 in Snow Light Snow
5:28 AM 10.0 °F -3.7 °F 3.9 °F 76% 29.96 in 3.0 mi ENE 10.4 mph - 0.01 in Snow Light Snow
5:37 AM 10.0 °F -5.9 °F 3.9 °F 76% 29.96 in 1.8 mi ENE 13.8 mph - 0.01 in Snow Light Snow
5:53 AM 10.0 °F -4.5 °F 3.9 °F 76% 30.09 in 1.5 mi ENE 11.5 mph - 0.01 in Snow Light Snow
5:58 AM 10.0 °F -5.2 °F 3.9 °F 76% 29.96 in 2.0 mi ENE 12.7 mph - 0.00 in Snow Light Snow
6:10 AM 10.0 °F -4.5 °F 3.9 °F 76% 29.96 in 4.0 mi ENE 11.5 mph - 0.00 in Snow Light Snow
6:53 AM 10.9 °F -4.1 °F 5.0 °F 77% 30.09 in 2.5 mi ENE 12.7 mph - 0.00 in   Haze
7:07 AM 10.9 °F -5.4 °F 5.0 °F 77% 29.95 in 4.0 mi East 15.0 mph - N/A   Haze
7:53 AM 10.9 °F -2.6 °F 5.0 °F 77% 30.11 in 10.0 mi East 10.4 mph - N/A   Overcast
8:53 AM 12.9 °F -2.2 °F 5.0 °F 71% 30.11 in 10.0 mi ENE 13.8 mph - 0.00 in   Overcast
9:53 AM 14.0 °F -0.8 °F 6.1 °F 71% 30.11 in 10.0 mi ENE 13.8 mph - 0.00 in   Overcast
10:53 AM 16.0 °F 2.9 °F 7.0 °F 68% 30.12 in 10.0 mi ENE 11.5 mph - N/A   Overcast
11:53 AM 19.0 °F 8.2 °F 10.0 °F 68% 30.11 in 9.0 mi East 9.2 mph - 0.00 in   Overcast
12:53 PM 19.9 °F 8.6 °F 10.0 °F 65% 30.10 in 10.0 mi East 10.4 mph - N/A   Overcast
1:53 PM 19.9 °F 7.9 °F 10.9 °F 68% 30.10 in 10.0 mi East 11.5 mph - N/A   Overcast
2:53 PM 21.0 °F 9.9 °F 10.0 °F 63% 30.10 in 10.0 mi East 10.4 mph - N/A   Overcast
3:53 PM 19.9 °F 8.6 °F 10.0 °F 65% 30.12 in 10.0 mi ENE 10.4 mph - N/A   Overcast
4:53 PM 19.9 °F 9.3 °F 10.0 °F 65% 30.14 in 10.0 mi East 9.2 mph - N/A   Overcast
5:53 PM 19.0 °F 9.0 °F 10.9 °F 71% 30.16 in 10.0 mi ENE 8.1 mph - N/A   Overcast
6:53 PM 18.0 °F 6.9 °F 10.9 °F 74% 30.16 in 10.0 mi ENE 9.2 mph - N/A   Overcast
7:53 PM 17.1 °F 6.6 °F 10.0 °F 74% 30.18 in 10.0 mi ENE 8.1 mph - N/A   Overcast
8:23 PM 12.9 °F 0.7 °F 8.1 °F 81% 30.06 in 10.0 mi ENE 9.2 mph - N/A   Mostly Cloudy
8:53 PM 10.9 °F 0.2 °F 6.1 °F 81% 30.18 in 10.0 mi ENE 6.9 mph - N/A   Clear
9:53 PM 7.0 °F -5.7 °F 1.9 °F 80% 30.18 in 10.0 mi ENE 8.1 mph - N/A   Clear
10:53 PM 6.1 °F -7.8 °F 1.0 °F 80% 30.17 in 10.0 mi ENE 9.2 mph - N/A   Clear
11:53 PM 6.1 °F -7.8 °F 1.0 °F 80% 30.15 in 10.0 mi ENE 9.2 mph - N/A   Clear